Tracking 35331 objects as of 15-Sep-2026
HD Live streaming from Space Station
objects crossing your sky now

STARLINK-4202

Track STARLINK-4202 now!
10-day predictions
STARLINK-4202 is classified as:


NORAD ID: 52848
Int'l Code: 2022-062U
Launch date: June 17, 2022
Source: United States (US)
Launch site: AIR FORCE EASTERN TEST RANGE (AFETR)
Your satellite tracking list
Your tracking list is empty




NASA's NSSDC Master Catalog

Two Line Element Set (TLE):
1 52848U 22062U   26257.56972018  .00000646  00000-0  29416-4 0  9991
2 52848  53.1594 257.7369 0001158  87.4588 272.6547 15.35400493234411
Source of the keplerian elements: AFSPC